Ludington, MI

10:53 AM EDT on October 21, 2017 (GMT -0400)
Mason County

Weather History for KLDM - January, 2013

Change the Weather History Date:

Thursday, January 17, 2013

  Actual Average Record
Temperature  
Mean Temperature 24 °F -  
Max Temperature 30 °F 29 °F 48 °F (1973)
Min Temperature 17 °F 15 °F -13 °F (1982)
Degree Days  
Heating Degree Days 41    
Moisture  
Dew Point 11 °F    
Average Humidity 60    
Maximum Humidity 83    
Minimum Humidity 47    
Precipitation  
Precipitation 0.00 in - - ()
Sea Level Pressure  
Sea Level Pressure 30.20 in    
Wind  
Wind Speed 9 mph (NNW)    
Max Wind Speed 16 mph    
Max Gust Speed 29 mph    
Visibility 9 miles    
Events Snow    
Averages and records for this station are not official NWS values.
T = Trace of Precipitation, MM = Missing Value Source: NWS Daily Summary

Daily Weather History Graph

Daily Weather History Graph

Search for Another Location

Airport or City:

Trip Planner

Search our weather history database for the weather conditions in past years. The results will help you decide how hot, cold, wet, or windy it might be!

Date:

Astronomy

Jan. 17, 2013 Rise Set
Actual Time 8:15 AM EST 5:36 PM EST
Civil Twilight 7:43 AM EST 6:08 PM EST
Nautical Twilight 7:08 AM EST 6:43 PM EST
Astronomical Twilight 6:33 AM EST 7:18 PM EST
Moon 11:07 AM EST (1/17) No Moon Set
Length of Visible Light 10h 24m
Length of Day
9h 20m
Waxing Crescent, 37% of the Moon is Illuminated
Jan 17
Waxing Crescent
Jan 18
First Quarter
Jan 26
Full
Feb 3
Last Quarter
Feb 10
New

Hourly Weather History & Observations

Time (EST) Temp. Windchill Dew Point Humidity Pressure Visibility Wind Dir Wind Speed Gust Speed Precip Events Conditions
12:15 AM 31.6 °F 24.4 °F 21.4 °F 66% 29.99 in 10.0 mi North 8.1 mph 11.5 mph N/A   Overcast
12:35 AM 30.2 °F 20.2 °F 19.2 °F 64% 30.00 in 10.0 mi North 12.7 mph 19.6 mph N/A   Overcast
12:55 AM 30.2 °F 19.3 °F 18.3 °F 61% 30.00 in 10.0 mi North 15.0 mph 19.6 mph N/A   Overcast
1:14 AM 30.2 °F 20.2 °F 18.3 °F 61% 30.00 in 10.0 mi North 12.7 mph 18.4 mph N/A   Mostly Cloudy
1:35 AM 30.2 °F 21.3 °F 18.5 °F 62% 30.02 in 10.0 mi North 10.4 mph - N/A   Mostly Cloudy
1:55 AM 30.2 °F 23.4 °F 18.3 °F 61% 30.03 in 10.0 mi North 6.9 mph - N/A   Overcast
2:14 AM 30.2 °F 21.3 °F 18.3 °F 61% 30.04 in 10.0 mi NNW 10.4 mph 16.1 mph N/A   Overcast
2:35 AM 30.2 °F 21.9 °F 18.1 °F 61% 30.04 in 10.0 mi North 9.2 mph - N/A   Overcast
2:55 AM 30.2 °F 23.4 °F 18.0 °F 60% 30.05 in 10.0 mi North 6.9 mph - N/A   Mostly Cloudy
3:14 AM 30.2 °F 22.6 °F 17.4 °F 59% 30.07 in 10.0 mi NNW 8.1 mph - N/A   Mostly Cloudy
3:35 AM 30.2 °F 22.6 °F 16.7 °F 57% 30.09 in 10.0 mi NNW 8.1 mph - N/A   Overcast
3:55 AM 30.2 °F 22.6 °F 17.4 °F 59% 30.10 in 10.0 mi NNW 8.1 mph - N/A   Overcast
4:35 AM 30.2 °F 23.4 °F 17.2 °F 59% 30.10 in 10.0 mi NNW 6.9 mph - N/A   Overcast
4:55 AM 29.1 °F 22.1 °F 14.9 °F 55% 30.11 in 10.0 mi NNW 6.9 mph - N/A   Overcast
5:15 AM 27.9 °F 21.5 °F 14.2 °F 57% 30.11 in 10.0 mi NNW 5.8 mph - N/A   Mostly Cloudy
5:35 AM 27.9 °F 20.6 °F 16.9 °F 63% 30.11 in 10.0 mi NNW 6.9 mph - N/A   Overcast
5:55 AM 27.9 °F 19.1 °F 17.4 °F 65% 30.12 in 10.0 mi North 9.2 mph - N/A   Overcast
6:15 AM 27.9 °F 19.8 °F 16.9 °F 63% 30.13 in 10.0 mi NNW 8.1 mph - N/A   Overcast
6:35 AM 27.9 °F 19.1 °F 15.8 °F 61% 30.14 in 10.0 mi NNW 9.2 mph - N/A   Overcast
6:54 AM 27.9 °F 21.5 °F 18.0 °F 66% 30.14 in 10.0 mi North 5.8 mph - N/A Snow Light Snow
7:15 AM 25.5 °F 18.7 °F 16.7 °F 69% 30.15 in 10.0 mi North 5.8 mph - N/A   Overcast
7:35 AM 25.3 °F 21.1 °F 18.3 °F 75% 30.16 in 10.0 mi NNE 3.5 mph - N/A   Overcast
7:55 AM 24.1 °F 19.7 °F 18.0 °F 77% 30.17 in 10.0 mi NE 3.5 mph - N/A   Overcast
8:15 AM 23.5 °F 17.6 °F 17.6 °F 78% 30.18 in 4.0 mi ENE 4.6 mph - N/A Snow Light Snow
8:35 AM 23.4 °F 18.9 °F 18.1 °F 80% 30.19 in 10.0 mi NNE 3.5 mph - N/A   Overcast
8:55 AM 23.4 °F - 18.5 °F 82% 30.20 in 3.0 mi Calm Calm - N/A Snow Light Snow
9:15 AM 23.4 °F 18.9 °F 18.9 °F 83% 30.21 in 10.0 mi North 3.5 mph - N/A Snow Light Snow
9:34 AM 23.0 °F 18.4 °F 18.5 °F 83% 30.22 in 10.0 mi North 3.5 mph - N/A   Overcast
9:55 AM 23.4 °F 16.2 °F 18.5 °F 82% 30.22 in 0.5 mi North 5.8 mph - N/A Snow Light Snow
10:15 AM 22.8 °F 18.2 °F 18.1 °F 82% 30.23 in 2.0 mi North 3.5 mph - N/A Snow Light Snow
10:34 AM 22.8 °F 15.5 °F 18.5 °F 83% 30.23 in 1.2 mi North 5.8 mph - N/A Snow Light Snow
10:55 AM 22.8 °F 15.5 °F 18.3 °F 83% 30.24 in 2.0 mi North 5.8 mph - N/A Snow Light Snow
11:15 AM 22.8 °F 14.5 °F 18.0 °F 82% 30.25 in 1.8 mi North 6.9 mph - N/A Snow Light Snow
11:34 AM 22.8 °F 16.7 °F 16.9 °F 78% 30.24 in 7.0 mi NNW 4.6 mph - N/A Snow Light Snow
11:55 AM 23.4 °F 12.8 °F 11.3 °F 60% 30.24 in 10.0 mi NW 10.4 mph 18.4 mph N/A   Mostly Cloudy
12:15 PM 24.4 °F 13.5 °F 11.8 °F 59% 30.24 in 10.0 mi NW 11.5 mph 19.6 mph N/A   Overcast
12:35 PM 23.7 °F 11.5 °F 11.3 °F 59% 30.24 in 10.0 mi NW 13.8 mph 21.9 mph N/A   Overcast
12:55 PM 25.3 °F 13.6 °F 10.4 °F 53% 30.24 in 10.0 mi NW 13.8 mph 21.9 mph N/A   Overcast
1:15 PM 22.8 °F 12.2 °F 8.2 °F 54% 30.24 in 10.0 mi WNW 10.4 mph 21.9 mph N/A   Overcast
1:35 PM 22.8 °F 10.9 °F 7.2 °F 51% 30.24 in 10.0 mi WNW 12.7 mph 23.0 mph N/A   Mostly Cloudy
1:55 PM 20.7 °F 8.8 °F 5.7 °F 53% 30.24 in 10.0 mi NW 11.5 mph 20.7 mph N/A   Mostly Cloudy
2:15 PM 21.0 °F 8.1 °F 6.3 °F 53% 30.24 in 10.0 mi NW 13.8 mph 23.0 mph N/A   Overcast
2:35 PM 20.3 °F 9.8 °F 6.3 °F 55% 30.25 in 10.0 mi NW 9.2 mph 17.3 mph N/A   Mostly Cloudy
2:55 PM 20.3 °F 9.0 °F 4.3 °F 50% 30.24 in 10.0 mi NNW 10.4 mph 18.4 mph N/A   Scattered Clouds
3:15 PM 20.8 °F 10.4 °F 5.7 °F 52% 30.23 in 10.0 mi NW 9.2 mph 16.1 mph N/A   Scattered Clouds
3:35 PM 21.4 °F 9.1 °F 4.6 °F 49% 30.23 in 10.0 mi NNW 12.7 mph 20.7 mph N/A   Scattered Clouds
3:55 PM 20.3 °F 7.7 °F 3.7 °F 49% 30.24 in 10.0 mi NNW 12.7 mph 25.3 mph N/A   Scattered Clouds
4:15 PM 20.3 °F 7.7 °F 3.7 °F 49% 30.25 in 10.0 mi NW 12.7 mph 28.8 mph N/A   Mostly Cloudy
4:35 PM 20.3 °F 6.1 °F 3.9 °F 49% 30.25 in 10.0 mi NNW 16.1 mph 23.0 mph N/A   Overcast
4:55 PM 20.3 °F 8.3 °F 4.6 °F 51% 30.26 in 10.0 mi NW 11.5 mph 19.6 mph N/A   Overcast
5:15 PM 20.3 °F 9.8 °F 5.4 °F 52% 30.26 in 10.0 mi NW 9.2 mph - N/A   Overcast
5:35 PM 20.3 °F 7.7 °F 4.5 °F 50% 30.27 in 10.0 mi WNW 12.7 mph 20.7 mph N/A   Overcast
5:55 PM 20.3 °F 10.6 °F 4.3 °F 50% 30.27 in 10.0 mi NW 8.1 mph 16.1 mph N/A   Mostly Cloudy
6:15 PM 20.3 °F 7.7 °F 2.8 °F 47% 30.27 in 10.0 mi NNW 12.7 mph 17.3 mph N/A   Overcast
6:34 PM 20.3 °F 10.6 °F 2.8 °F 47% 30.28 in 10.0 mi NW 8.1 mph 17.3 mph N/A   Overcast
6:55 PM 20.3 °F 9.0 °F 4.6 °F 51% 30.28 in 10.0 mi NW 10.4 mph 19.6 mph N/A   Overcast
7:15 PM 20.3 °F 9.8 °F 3.6 °F 48% 30.29 in 10.0 mi NW 9.2 mph 16.1 mph N/A   Overcast
7:35 PM 20.3 °F 10.6 °F 3.9 °F 49% 30.30 in 10.0 mi NW 8.1 mph 20.7 mph N/A   Overcast
7:55 PM 20.3 °F 7.7 °F 4.1 °F 50% 30.30 in 10.0 mi NNW 12.7 mph 18.4 mph N/A   Overcast
8:14 PM 20.3 °F 9.8 °F 6.1 °F 54% 30.30 in 10.0 mi NNW 9.2 mph 19.6 mph N/A   Overcast
8:35 PM 20.3 °F 9.0 °F 6.6 °F 56% 30.32 in 10.0 mi NW 10.4 mph - N/A   Overcast
8:55 PM 20.3 °F 9.8 °F 6.3 °F 55% 30.32 in 10.0 mi NW 9.2 mph - N/A   Overcast
9:14 PM 20.3 °F 9.8 °F 5.9 °F 54% 30.32 in 10.0 mi NNW 9.2 mph 20.7 mph N/A   Overcast
9:54 PM 20.3 °F 8.3 °F 6.1 °F 54% 30.33 in 10.0 mi NW 11.5 mph 17.3 mph N/A   Overcast
10:15 PM 19.6 °F 8.9 °F 3.9 °F 51% 30.33 in 10.0 mi NW 9.2 mph 16.1 mph N/A   Overcast
10:35 PM 18.3 °F 9.1 °F 1.0 °F 47% 30.33 in 10.0 mi NW 6.9 mph 17.3 mph N/A   Mostly Cloudy
10:54 PM 18.1 °F 7.1 °F 1.6 °F 48% 30.33 in 10.0 mi NNW 9.2 mph - N/A   Mostly Cloudy
11:15 PM 17.6 °F 5.7 °F 1.8 °F 50% 30.33 in 10.0 mi NNW 10.4 mph - N/A   Mostly Cloudy
11:34 PM 18.0 °F 9.8 °F 1.2 °F 48% 30.34 in 10.0 mi NNW 5.8 mph - N/A   Overcast
11:55 PM 18.0 °F 6.9 °F 3.2 °F 53% 30.34 in 10.0 mi NNW 9.2 mph - N/A   Overcast